When you browse on this site, cookies collect data to enhance your experience and personalize the content and advertising you see.
Visit our Privacy Policy to learn more. By continuing to use the site, you agree to this use of cookies and data.
  • In Latvia
  • List of Countries
  • For 7 days
  • Water Temperature
  • Satellite Maps
  • Weather Map
  • Weather Widgets
  • user-avatar
    Login

    Hourly Weather Innsbruck

    Today, 19 January, Saturday

    Time Temperature Precipitation Wind Pressure Humidity
    00:00 -18°C° 0 mm 2 mps 588 mmHg 74%
    01:00 -17°C° 0 mm 3 mps 588 mmHg 71%
    02:00 -17°C° 0 mm 3 mps 588 mmHg 72%
    03:00 -17°C° 0 mm 3 mps 588 mmHg 73%
    04:00 -17°C° 0 mm 3 mps 587 mmHg 74%
    05:00 -16°C° 0 mm 2 mps 587 mmHg 74%
    06:00 -16°C° 0 mm 2 mps 587 mmHg 74%
    07:00 -16°C° 0 mm 2 mps 587 mmHg 74%
    08:00 -14°C° 0 mm 2 mps 588 mmHg 76%
    09:00 -13°C° 0 mm 2 mps 588 mmHg 78%
    10:00 -12°C° 0 mm 2 mps 589 mmHg 79%
    11:00 -9°C° 0 mm 2 mps 589 mmHg 78%
    12:00 -7°C° 0 mm 1 mps 589 mmHg 77%
    13:00 -6°C° 0 mm 1 mps 590 mmHg 75%
    14:00 -6°C° 0 mm 1 mps 589 mmHg 78%
    15:00 -7°C° 0 mm 1 mps 589 mmHg 81%
    16:00 -8°C° 0 mm 0 mps 588 mmHg 84%
    17:00 -9°C° 0 mm 1 mps 588 mmHg 84%
    18:00 -10°C° 0 mm 1 mps 587 mmHg 83%
    19:00 -13°C° 0 mm 2 mps 587 mmHg 83%
    20:00 -14°C° 0 mm 2 mps 586 mmHg 82%
    21:00 -14°C° 0 mm 2 mps 586 mmHg 81%
    22:00 -14°C° 0 mm 2 mps 586 mmHg 80%
    23:00 -15°C° 0 mm 2 mps 586 mmHg 80%

    Tomorrow, 20 January, Sunday

    Time Temperature Precipitation Wind Pressure Humidity
    00:00 -15°C° 0 mm 2 mps 586 mmHg 79%
    01:00 -16°C° 0 mm 2 mps 586 mmHg 79%
    02:00 -16°C° 0 mm 2 mps 585 mmHg 79%
    03:00 -16°C° 0 mm 2 mps 585 mmHg 79%
    04:00 -16°C° 0 mm 2 mps 585 mmHg 79%
    05:00 -16°C° 0 mm 2 mps 585 mmHg 79%
    06:00 -17°C° 0 mm 2 mps 585 mmHg 79%
    07:00 -15°C° 0 mm 1 mps 585 mmHg 79%
    08:00 -13°C° 0 mm 1 mps 586 mmHg 80%
    09:00 -11°C° 0 mm 1 mps 587 mmHg 81%
    10:00 -10°C° 0 mm 1 mps 588 mmHg 81%
    11:00 -9°C° 0 mm 1 mps 588 mmHg 77%
    12:00 -7°C° 0 mm 1 mps 588 mmHg 72%
    13:00 -6°C° 0 mm 1 mps 589 mmHg 68%
    14:00 -7°C° 0 mm 1 mps 588 mmHg 74%
    15:00 -8°C° 0 mm 1 mps 588 mmHg 79%
    16:00 -8°C° 0 mm 1 mps 588 mmHg 85%
    17:00 -10°C° 0 mm 1 mps 588 mmHg 86%
    18:00 -11°C° 0 mm 1 mps 587 mmHg 86%
    19:00 -12°C° 0 mm 1 mps 587 mmHg 86%
    20:00 -12°C° 0 mm 1 mps 587 mmHg 85%
    21:00 -12°C° 0 mm 1 mps 588 mmHg 83%
    22:00 -13°C° 0 mm 1 mps 588 mmHg 81%
    23:00 -13°C° 0 mm 1 mps 588 mmHg 81%

    Day after tomorrow, 21 January, Monday

    Time Temperature Precipitation Wind Pressure Humidity
    00:00 -13°C° 0 mm 1 mps 588 mmHg 81%
    01:00 -13°C° 0 mm 1 mps 588 mmHg 80%
    02:00 -13°C° 0 mm 1 mps 588 mmHg 81%
    03:00 -13°C° 0 mm 1 mps 588 mmHg 81%
    04:00 -14°C° 0 mm 1 mps 588 mmHg 82%
    05:00 -14°C° 0 mm 1 mps 588 mmHg 83%
    06:00 -14°C° 0 mm 1 mps 588 mmHg 84%
    07:00 -14°C° 0 mm 1 mps 588 mmHg 85%
    08:00 -13°C° 0 mm 1 mps 589 mmHg 86%
    09:00 -11°C° 0 mm 1 mps 590 mmHg 87%
    10:00 -10°C° 0 mm 1 mps 591 mmHg 88%
    11:00 -9°C° 0 mm 1 mps 591 mmHg 87%
    12:00 -8°C° 0 mm 1 mps 591 mmHg 87%
    13:00 -7°C° 0 mm 1 mps 591 mmHg 86%
    14:00 -8°C° 0.1 mm 1 mps 591 mmHg 88%
    15:00 -8°C° 0.1 mm 1 mps 591 mmHg 89%
    16:00 -9°C° 0.1 mm 2 mps 590 mmHg 91%
    17:00 -10°C° 0 mm 1 mps 590 mmHg 93%
    18:00 -12°C° 0 mm 1 mps 589 mmHg 94%
    19:00 -13°C° 0 mm 0 mps 589 mmHg 96%
    20:00 -14°C° 0 mm 1 mps 588 mmHg 94%
    21:00 -15°C° 0 mm 1 mps 588 mmHg 92%
    22:00 -15°C° 0 mm 1 mps 588 mmHg 90%
    23:00 -16°C° 0 mm 1 mps 587 mmHg 87%

    22 January, Tuesday

    Time Temperature Precipitation Wind Pressure Humidity
    00:00 -18°C° 0 mm 2 mps 587 mmHg 84%
    01:00 -18°C° 0 mm 2 mps 587 mmHg 81%
    02:00 -19°C° 0 mm 2 mps 586 mmHg 78%
    03:00 -19°C° 0 mm 2 mps 586 mmHg 75%
    04:00 -19°C° 0 mm 2 mps 585 mmHg 72%
    05:00 -19°C° 0 mm 2 mps 585 mmHg 69%
    06:00 -19°C° 0 mm 2 mps 585 mmHg 65%
    07:00 -19°C° 0 mm 2 mps 584 mmHg 62%
    08:00 -17°C° 0 mm 2 mps 585 mmHg 64%
    09:00 -15°C° 0 mm 2 mps 585 mmHg 66%
    10:00 -13°C° 0 mm 2 mps 586 mmHg 68%
    11:00 -12°C° 0 mm 2 mps 586 mmHg 66%
    12:00 -9°C° 0 mm 2 mps 585 mmHg 65%
    13:00 -7°C° 0 mm 2 mps 585 mmHg 64%
    14:00 -8°C° 0 mm 2 mps 584 mmHg 68%
    15:00 -9°C° 0 mm 2 mps 583 mmHg 72%
    16:00 -10°C° 0 mm 2 mps 582 mmHg 76%
    17:00 -13°C° 0 mm 2 mps 581 mmHg 74%
    18:00 -15°C° 0 mm 2 mps 580 mmHg 71%
    19:00 -18°C° 0 mm 3 mps 579 mmHg 69%
    20:00 -19°C° 0 mm 3 mps 578 mmHg 69%
    21:00 -19°C° 0 mm 3 mps 578 mmHg 69%
    22:00 -21°C° 0 mm 3 mps 578 mmHg 69%
    23:00 -21°C° 0 mm 3 mps 577 mmHg 71%

    23 January, Wednesday

    Time Temperature Precipitation Wind Pressure Humidity
    00:00 -21°C° 0 mm 3 mps 577 mmHg 72%
    01:00 -21°C° 0 mm 3 mps 576 mmHg 74%
    02:00 -19°C° 0 mm 2 mps 576 mmHg 75%
    03:00 -20°C° 0 mm 2 mps 576 mmHg 75%
    04:00 -20°C° 0 mm 2 mps 575 mmHg 76%
    05:00 -20°C° 0 mm 2 mps 575 mmHg 75%
    06:00 -20°C° 0 mm 2 mps 575 mmHg 74%
    07:00 -20°C° 0 mm 2 mps 575 mmHg 73%
    08:00 -18°C° 0 mm 2 mps 576 mmHg 74%
    09:00 -14°C° 0 mm 1 mps 577 mmHg 75%
    10:00 -12°C° 0 mm 1 mps 578 mmHg 76%
    11:00 -11°C° 0 mm 1 mps 578 mmHg 74%
    12:00 -10°C° 0 mm 1 mps 579 mmHg 72%
    13:00 -8°C° 0 mm 1 mps 579 mmHg 69%
    14:00 -9°C° 0 mm 1 mps 579 mmHg 75%
    15:00 -9°C° 0 mm 1 mps 578 mmHg 80%
    16:00 -10°C° 0 mm 1 mps 578 mmHg 86%
    17:00 -12°C° 0 mm 1 mps 578 mmHg 87%
    18:00 -14°C° 0 mm 1 mps 577 mmHg 89%
    19:00 -16°C° 0 mm 1 mps 576 mmHg 91%
    20:00 -16°C° 0 mm 1 mps 577 mmHg 88%
    21:00 -15°C° 0 mm 1 mps 577 mmHg 85%
    22:00 -15°C° 0 mm 1 mps 578 mmHg 83%
    23:00 -15°C° 0 mm 1 mps 578 mmHg 81%

    24 January, Thursday

    Time Temperature Precipitation Wind Pressure Humidity
    00:00 -15°C° 0 mm 1 mps 578 mmHg 80%
    01:00 -16°C° 0 mm 1 mps 578 mmHg 78%
    02:00 -15°C° 0 mm 1 mps 578 mmHg 77%
    03:00 -15°C° 0 mm 1 mps 578 mmHg 76%
    04:00 -15°C° 0 mm 1 mps 578 mmHg 75%
    05:00 -15°C° 0 mm 1 mps 579 mmHg 72%
    06:00 -15°C° 0 mm 1 mps 579 mmHg 70%
    07:00 -15°C° 0 mm 1 mps 579 mmHg 68%
    08:00 -13°C° 0 mm 1 mps 580 mmHg 69%
    09:00 -12°C° 0 mm 0 mps 581 mmHg 69%
    10:00 -10°C° 0 mm 0 mps 582 mmHg 70%
    11:00 -9°C° 0 mm 1 mps 582 mmHg 73%
    12:00 -8°C° 0 mm 1 mps 582 mmHg 77%
    13:00 -8°C° 0 mm 2 mps 582 mmHg 80%
    14:00 -9°C° 0 mm 2 mps 582 mmHg 84%
    15:00 -10°C° 0 mm 2 mps 582 mmHg 89%
    16:00 -10°C° 0 mm 1 mps 582 mmHg 93%
    17:00 -12°C° 0 mm 1 mps 581 mmHg 93%
    18:00 -14°C° 0 mm 1 mps 581 mmHg 93%
    19:00 -16°C° 0 mm 1 mps 580 mmHg 94%
    20:00 -16°C° 0 mm 1 mps 580 mmHg 92%
    21:00 -17°C° 0 mm 1 mps 580 mmHg 91%
    22:00 -17°C° 0 mm 1 mps 580 mmHg 90%
    23:00 -18°C° 0 mm 1 mps 580 mmHg 89%
    Show more